Location: Newark
(48.9000°N, 0.7000°E)
Time: 02:09:19
(UTC+00:00)

ISS - Visible Passes

Search period start: 01 October 2020 00:00
Search period end: 11 October 2020 00:00
Orbit: 419 x 421 km, 51.6° (Epoch: 01 October)

Date Brightness Start Highest point End Pass type
(mag) Time Alt. Az. Time Alt. Az. Time Alt. Az.
01 Oct -3.8 19:04:11 10° WNW 19:07:34 82° SSW 19:08:40 40° ESE visible
01 Oct -0.4 20:41:34 10° W 20:41:39 10° W 20:41:39 10° W visible
02 Oct -3.7 18:16:53 10° WNW 18:20:16 77° NNE 18:23:16 13° ESE visible
02 Oct -1.9 19:53:57 10° W 19:56:14 26° WSW 19:56:14 26° WSW visible
03 Oct -2.8 19:06:29 10° WNW 19:09:41 40° SSW 19:10:53 28° SSE visible
04 Oct -3.3 18:19:06 10° WNW 18:22:26 59° SSW 18:25:36 11° SE visible
04 Oct -0.9 19:57:12 10° WSW 19:58:35 12° SW 19:58:35 12° SW visible
05 Oct -1.4 19:09:07 10° W 19:11:33 19° SW 19:13:24 13° S visible
06 Oct -1.9 18:21:27 10° W 18:24:23 27° SW 18:27:17 10° SSE visible
08 Oct -0.8 18:24:39 10° WSW 18:26:05 12° SW 18:27:31 10° SSW visible
